{"data":{"norad_id":53665,"epoch":"2026-05-25T04:00:03.998880Z","epoch_age_seconds":56554,"freshness":"FRESH","line1":"1 53665U 22105T   26145.16671295  .00083765  00000+0  22476-2 0  9991","line2":"2 53665  97.6033  28.3144 0002213  86.2563 135.8215 15.37636016  5878","mean_motion":15.37636016,"eccentricity":0.0002213,"inclination_deg":97.6033,"raan_deg":28.3144,"arg_perigee_deg":86.2563,"mean_anomaly_deg":135.8215,"bstar":0.0022476,"rev_number":587,"period_min":93.650251751127,"perigee_km":451.59023755276,"apogee_km":454.61374393007,"semimajor_km":6831.2389907414,"source":"CELESTRAK","updated_at":"2026-05-25T13:38:17.487723Z"}}